Starlink 32124

operational
NORAD ID: 60298 Int'l Des: 2024-132 Owner: SPXS Country: US Constellation: starlink
LEOCIRCULAR

关于 Starlink 32124

正在加载描述...

实时位置

正在加载3D地球...

即将过境

高度历史

Altitude vs Time

uPlot chart will show altitude changes over time

两行轨道根数

1 60298U 24132W 25306.23686404 -.00000468 00000-0 -36790-5 0 9996
2 60298 53.1613 284.6622 0001245 89.5045 270.6098 15.30186429 72043
Epoch: Nov 2, 2025 • Age: 35 hours

当前状态

高度 476.6 km
速度 7.63 km/s
星下点 30.67°N, 15.85°E
发射日期 Jul 28, 2024
运行时间 1.2 years
类型 internet

技术详情

分类 Payload
质量 730.00 kg
干质量 700.00 kg
总质量 730.00 kg
长度 0.30 m
直径 4.10 m
跨度 29.00 m
形状 Box + pan
制造商 SPXS
平台类型 Starlink V2M
阶段状态 In Orbit
所有者/国家 SPXS/US

大型星座

Loading constellations...